PROFILE

 METAR AND TAF INFORMATION
ADDS - METARS form results

(0631 UTC 19 July 2019)
http://aviationweather.gov/metar/data/
 
EVRA 190620Z 31008KT 250V350 9999 SCT012 BKN015 17/14 Q1011 NOSIG
EVRA 190550Z 31007KT 250V360 9999 BKN012 17/13 Q1011 NOSIG
TAF EVRA 190503Z 1906/2006 30005KT CAVOK TEMPO 1906/1909 BKN010 TEMPO 1921/2003 0700 FG BKN001 

 AIRPORT MAP

 RUNWAY INFORMATION
Runway 18 Runway length 10499 ft Runway width 148 ft
Runway elevation 31 ft Runway displaced threshold 0 ft Runway heading 185
Runway 36 Runway length 10499 ft Runway width 148 ft
Runway elevation 34 ft Runway displaced threshold 0 ft Runway heading 5

 AIRPORT FREQUENCIES
Type APP Name APP Frequency 129.925 MHZ
Type ATIS Name ATIS Frequency 121.2 MHZ
Type GND Name Riga Groun Frequency 118.8 MHZ
Type MISC Name Riga Apron Frequency 131.6 MHZ
Type TWR Name TWR Frequency 118.1 MHZ

 AIRPORT NEAR NAVIGATION AIDS
Type VOR-DME Name Riga Frequency 112050 KHZ
Type VOR-DME Name Riga Frequency 113700 KHZ